EN

Hourly Weather Vibo Valentia

Today, 26 November, Thursday

Time Temperature Precipitation Wind Pressure Humidity
00:00 +9°C° 0 mm 2 mps 724 mmHg 86%
01:00 +9°C° 0 mm 2 mps 724 mmHg 85%
02:00 +9°C° 0 mm 2 mps 724 mmHg 84%
03:00 +9°C° 0 mm 2 mps 724 mmHg 84%
04:00 +9°C° 0 mm 2 mps 724 mmHg 83%
05:00 +9°C° 0 mm 2 mps 724 mmHg 84%
06:00 +9°C° 0 mm 2 mps 724 mmHg 84%
07:00 +8°C° 0 mm 2 mps 724 mmHg 85%
08:00 +10°C° 0 mm 2 mps 725 mmHg 80%
09:00 +13°C° 0 mm 2 mps 725 mmHg 75%
10:00 +14°C° 0 mm 2 mps 725 mmHg 69%
11:00 +15°C° 0 mm 2 mps 725 mmHg 67%
12:00 +15°C° 0 mm 1 mps 725 mmHg 64%
13:00 +16°C° 0 mm 1 mps 724 mmHg 62%
14:00 +15°C° 0 mm 1 mps 724 mmHg 67%
15:00 +14°C° 0 mm 1 mps 724 mmHg 72%
16:00 +13°C° 0 mm 1 mps 724 mmHg 77%
17:00 +12°C° 0 mm 1 mps 724 mmHg 81%
18:00 +12°C° 0 mm 2 mps 724 mmHg 85%
19:00 +10°C° 0 mm 2 mps 724 mmHg 89%
20:00 +9°C° 0 mm 2 mps 724 mmHg 88%
21:00 +9°C° 0 mm 2 mps 724 mmHg 88%
22:00 +9°C° 0 mm 2 mps 724 mmHg 88%
23:00 +9°C° 0 mm 2 mps 724 mmHg 87%

Tomorrow, 27 November, Friday

Time Temperature Precipitation Wind Pressure Humidity
00:00 +8°C° 0 mm 2 mps 724 mmHg 86%
01:00 +8°C° 0 mm 2 mps 724 mmHg 85%
02:00 +8°C° 0 mm 2 mps 724 mmHg 85%
03:00 +8°C° 0 mm 2 mps 724 mmHg 85%
04:00 +8°C° 0 mm 2 mps 723 mmHg 85%
05:00 +8°C° 0 mm 2 mps 723 mmHg 85%
06:00 +7°C° 0 mm 2 mps 723 mmHg 85%
07:00 +7°C° 0 mm 2 mps 723 mmHg 85%
08:00 +9°C° 0 mm 2 mps 724 mmHg 77%
09:00 +12°C° 0 mm 2 mps 724 mmHg 70%
10:00 +14°C° 0 mm 2 mps 724 mmHg 62%
11:00 +14°C° 0 mm 2 mps 724 mmHg 60%
12:00 +15°C° 0 mm 2 mps 724 mmHg 57%
13:00 +16°C° 0 mm 2 mps 723 mmHg 55%
14:00 +15°C° 0 mm 2 mps 723 mmHg 61%
15:00 +14°C° 0 mm 2 mps 723 mmHg 68%
16:00 +13°C° 0 mm 2 mps 723 mmHg 75%
17:00 +12°C° 0 mm 2 mps 723 mmHg 79%
18:00 +10°C° 0 mm 2 mps 723 mmHg 83%
19:00 +9°C° 0 mm 3 mps 723 mmHg 88%
20:00 +9°C° 0 mm 3 mps 723 mmHg 88%
21:00 +9°C° 0 mm 3 mps 723 mmHg 88%
22:00 +9°C° 0 mm 3 mps 723 mmHg 88%
23:00 +9°C° 0 mm 3 mps 722 mmHg 88%

Day after tomorrow, 28 November, Saturday

Time Temperature Precipitation Wind Pressure Humidity
00:00 +9°C° 0 mm 3 mps 722 mmHg 87%
01:00 +9°C° 0 mm 3 mps 722 mmHg 87%
02:00 +9°C° 0 mm 3 mps 722 mmHg 86%
03:00 +9°C° 0 mm 3 mps 721 mmHg 86%
04:00 +8°C° 0 mm 4 mps 721 mmHg 85%
05:00 +8°C° 0 mm 4 mps 721 mmHg 84%
06:00 +8°C° 0 mm 4 mps 721 mmHg 84%
07:00 +8°C° 0 mm 4 mps 720 mmHg 83%
08:00 +10°C° 0 mm 5 mps 720 mmHg 77%
09:00 +12°C° 0 mm 5 mps 721 mmHg 72%
10:00 +14°C° 0 mm 6 mps 721 mmHg 67%
11:00 +14°C° 0 mm 6 mps 720 mmHg 66%
12:00 +14°C° 0 mm 6 mps 720 mmHg 66%
13:00 +15°C° 0 mm 6 mps 719 mmHg 66%
14:00 +14°C° 0 mm 6 mps 718 mmHg 70%
15:00 +13°C° 0 mm 6 mps 718 mmHg 73%
16:00 +13°C° 0 mm 6 mps 717 mmHg 77%
17:00 +13°C° 0.5 mm 6 mps 717 mmHg 81%
18:00 +11°C° 0.5 mm 6 mps 717 mmHg 86%
19:00 +11°C° 0.5 mm 6 mps 717 mmHg 90%
20:00 +13°C° 0.7 mm 6 mps 717 mmHg 90%
21:00 +13°C° 0.7 mm 6 mps 716 mmHg 90%
22:00 +13°C° 0.7 mm 6 mps 716 mmHg 90%
23:00 +13°C° 0.8 mm 5 mps 716 mmHg 90%

29 November, Sunday

Time Temperature Precipitation Wind Pressure Humidity
00:00 +12°C° 0.8 mm 5 mps 715 mmHg 90%
01:00 +12°C° 0.8 mm 4 mps 715 mmHg 90%
02:00 +12°C° 1.6 mm 4 mps 714 mmHg 91%
03:00 +12°C° 1.6 mm 3 mps 714 mmHg 92%
04:00 +11°C° 1.6 mm 3 mps 713 mmHg 93%
05:00 +12°C° 0.2 mm 2 mps 713 mmHg 89%
06:00 +12°C° 0.2 mm 2 mps 713 mmHg 86%
07:00 +11°C° 0.2 mm 1 mps 713 mmHg 83%
08:00 +13°C° 0 mm 1 mps 713 mmHg 77%
09:00 +14°C° 0 mm 1 mps 713 mmHg 71%
10:00 +15°C° 0 mm 1 mps 713 mmHg 65%
11:00 +15°C° 0 mm 1 mps 713 mmHg 63%
12:00 +16°C° 0 mm 2 mps 712 mmHg 61%
13:00 +16°C° 0 mm 2 mps 712 mmHg 59%
14:00 +15°C° 0.2 mm 2 mps 712 mmHg 64%
15:00 +14°C° 0.2 mm 2 mps 712 mmHg 69%
16:00 +13°C° 0.2 mm 2 mps 712 mmHg 75%
17:00 +13°C° 1.2 mm 2 mps 712 mmHg 80%
18:00 +12°C° 1.2 mm 2 mps 712 mmHg 85%
19:00 +12°C° 1.2 mm 1 mps 712 mmHg 90%
20:00 +11°C° 0.6 mm 1 mps 712 mmHg 91%
21:00 +11°C° 0.6 mm 1 mps 712 mmHg 92%
22:00 +11°C° 0.6 mm 1 mps 712 mmHg 93%
23:00 +11°C° 0.2 mm 1 mps 712 mmHg 93%

30 November, Monday

Time Temperature Precipitation Wind Pressure Humidity
00:00 +11°C° 0.2 mm 1 mps 713 mmHg 92%
01:00 +11°C° 0.2 mm 1 mps 713 mmHg 92%
02:00 +11°C° 0 mm 1 mps 713 mmHg 91%
03:00 +10°C° 0 mm 2 mps 714 mmHg 91%
04:00 +9°C° 0 mm 2 mps 714 mmHg 90%
05:00 +9°C° 0 mm 3 mps 715 mmHg 90%
06:00 +9°C° 0 mm 3 mps 715 mmHg 90%
07:00 +8°C° 0 mm 4 mps 716 mmHg 89%
08:00 +11°C° 0 mm 4 mps 717 mmHg 84%
09:00 +12°C° 0 mm 5 mps 717 mmHg 79%
10:00 +13°C° 0 mm 5 mps 718 mmHg 73%
11:00 +13°C° 0.2 mm 5 mps 718 mmHg 73%
12:00 +13°C° 0.2 mm 5 mps 718 mmHg 72%
13:00 +13°C° 0.2 mm 4 mps 718 mmHg 71%
14:00 +12°C° 0.6 mm 4 mps 718 mmHg 76%
15:00 +12°C° 0.6 mm 4 mps 718 mmHg 81%
16:00 +11°C° 0.6 mm 4 mps 718 mmHg 85%
17:00 +11°C° 0.2 mm 4 mps 718 mmHg 83%
18:00 +9°C° 0.2 mm 5 mps 719 mmHg 82%
19:00 +9°C° 0.2 mm 5 mps 719 mmHg 80%
20:00 +8°C° 0.1 mm 5 mps 719 mmHg 79%
21:00 +8°C° 0.1 mm 5 mps 720 mmHg 78%
22:00 +7°C° 0.1 mm 6 mps 720 mmHg 76%
23:00 +6°C° 0 mm 5 mps 720 mmHg 76%

1 December, Tuesday

Time Temperature Precipitation Wind Pressure Humidity
00:00 +5°C° 0 mm 5 mps 720 mmHg 75%
01:00 +4°C° 0 mm 4 mps 720 mmHg 75%
02:00 +4°C° 0 mm 4 mps 720 mmHg 75%
03:00 +4°C° 0 mm 3 mps 720 mmHg 75%
04:00 +3°C° 0 mm 3 mps 720 mmHg 75%
05:00 +4°C° 0 mm 2 mps 720 mmHg 74%
06:00 +4°C° 0 mm 2 mps 720 mmHg 74%
07:00 +4°C° 0 mm 2 mps 720 mmHg 73%
08:00 +5°C° 0 mm 2 mps 721 mmHg 68%
09:00 +7°C° 0 mm 2 mps 721 mmHg 62%
10:00 +9°C° 0 mm 1 mps 721 mmHg 57%
11:00 +10°C° 0 mm 1 mps 721 mmHg 55%
12:00 +9°C° 0 mm 2 mps 721 mmHg 54%
13:00 +10°C° 0 mm 2 mps 721 mmHg 52%
14:00 +9°C° 0 mm 2 mps 721 mmHg 57%
15:00 +8°C° 0 mm 2 mps 721 mmHg 63%
16:00 +8°C° 0 mm 2 mps 721 mmHg 68%
17:00 +8°C° 0 mm 1 mps 721 mmHg 71%
18:00 +7°C° 0 mm 1 mps 721 mmHg 74%
19:00 +6°C° 0 mm 1 mps 721 mmHg 78%
20:00 +6°C° 0 mm 1 mps 721 mmHg 78%
21:00 +6°C° 0 mm 1 mps 722 mmHg 79%
22:00 +5°C° 0 mm 1 mps 722 mmHg 80%
23:00 +5°C° 0 mm 1 mps 722 mmHg 79%
Show more

We Need Your Consent

Meteoprog and our Service Providers may store and access personal data such as cookies, device identifiers or other similar technologies on your device and process such data to personalise content and ads, as well as provide social media features and to analyse the traffic.

  • Store and/or access information on your device

    Cookies, device identifiers or other information can be stored or accessed on your device for the purposes indicated above.

  • Personalised ads and content, ad and content measurement, audience insights, and products development

    Ads and content can be personalised based on a profile. More data can be added to better personalise ads and content. Ad and content performance can be measured. Insights about the audience who saw the ads and content can be derived. Such data can be used to develop or improve user’s experience, systems and software.

By clicking ‘I Agree’ you will allow the use of indicated cookies, device identifiers, web beacons or other similar technologies. Your settings can be changed in the browser on your device.

For certain purposes, legitimate interests may be relied on, rather than consent. You can read more about this in our Privacy and Cookie Policy.